Tracking 18840 objects as of 18-November-2017
HD Live streaming from Space Station
objects crossing your sky now

FENGYUN 1C DEB

Track FENGYUN 1C DEB now!
10-day predictions


NORAD ID: 32222
Int'l Code: 1999-025CVU
Perigee: 753.9 km
Apogee: 902.9 km
Inclination: 99.1 °
Period: 101.3 minutes
Semi major axis: 7199 km
RCS: 0.0083 m2 (small)
Launch date: May 10, 1999
Source: People's Republic of China (PRC)
Launch site: Taiyaun Space Center, China (TSC)

Note: This is SATELLITE DEBRIS
aabbcc
Your satellite tracking list
Your tracking list is empty




NASA's NSSDC Master Catalog

Two Line Element Set (TLE):
1 32222U 99025CVU 17320.11386057  .00001394  00000-0  62694-3 0  9997
2 32222  99.1177  81.7370 0103476 118.1081 243.0601 14.21200519531093
Source of the keplerian elements: AFSPC